QPF
0.00 0.00 0.00 0.00 0.00 0.00 0.00 0.00 0.00 0.00 0.00 0.00 0.00 0.00 0.00 0.00 0.00 0.00 0.00 0.00 0.00 0.00 0.00 0.00 0.00 0.00 0.00 0.00 0.00 0.00 0.00 0.00 0.00 0.00 0.00 0.00 0.00 0.00 0.00 0.00 0.00 0.00 0.00
0.00 0.00 0.00 0.00 0.00 0.00 0.00 0.00 0.00 0.00 0.00 0.00 0.00 0.00 0.00 0.00 0.00 0.00 0.00 0.00 0.00 0.00 0.00 0.00 0.00 0.00 0.00 0.00 0.00 0.00 0.00 0.00 0.00 0.00 0.00 0.00 0.00 0.00 0.00 0.00 0.00 0.00 0.00
0.00 0.00 0.00 0.00 0.00 0.00 0.00 0.00 0.00 0.00 0.00 0.00 0.00 0.00 0.00 0.00 0.00 0.00 0.00 0.00 0.00 0.00 0.00 0.00 0.00 0.00 0.00 0.00 0.00 0.00 0.00 0.00 0.00 0.00 0.00 0.00 0.00 0.00 0.00 0.00 0.00 0.00 0.00
0.00 0.00 0.00 0.00 0.00 0.00 0.00 0.00 0.00 0.00 0.00 0.00 0.00 0.00 0.00 0.00 0.00 0.00 0.00 0.00 0.00 0.00 0.00 0.00 0.00 0.00 0.00 0.00 0.00 0.00 0.00 0.00 0.00 0.00 0.00 0.00 0.00 0.01 0.00 0.00 0.00 0.00 0.00
0.00 0.00 0.00 0.00 0.00 0.00 0.00 0.00 0.00 0.00 0.00 0.00 0.00 0.00 0.00 0.00 0.00 0.00 0.00 0.00 0.00 0.00 0.00 0.00 0.00 0.00 0.00 0.00 0.00 0.00 0.00 0.00 0.01 0.00 0.00 0.00 0.00 0.00 0.01 0.00 0.00 0.00 0.00
0.00 0.00 0.00 0.00 0.00 0.00 0.00 0.00 0.00 0.00 0.00 0.00 0.00 0.00 0.00 0.00 0.00 0.00 0.00 0.00 0.00 0.00 0.00 0.00 0.00 0.00 0.00 0.00 0.00 0.00 0.00 0.00 0.00 0.01 0.01 0.01 0.01 0.00 0.00 0.00 0.00 0.00 0.00
0.00 0.00 0.00 0.00 0.00 0.00 0.00 0.00 0.00 0.00 0.00 0.00 0.00 0.00 0.00 0.00 0.00 0.00 0.00 0.00 0.00 0.00 0.00 0.00 0.00 0.00 0.00 0.00 0.00 0.00 0.00 0.00 0.00 0.00 0.00 0.01 0.01 0.01 0.01 0.01 0.00 0.00 0.00
0.00 0.00 0.00 0.00 0.00 0.00 0.00 0.00 0.00 0.00 0.00 0.00 0.00 0.00 0.00 0.00 0.00 0.00 0.00 0.00 0.00 0.00 0.00 0.00 0.00 0.00 0.00 0.00 0.00 0.00 0.00 0.00 0.00 0.00 0.00 0.00 0.00 0.00 0.01 0.01 0.02 0.01 0.00
0.00 0.00 0.00 0.00 0.00 0.00 0.00 0.00 0.00 0.00 0.00 0.00 0.00 0.00 0.00 0.00 0.00 0.00 0.00 0.00 0.00 0.00 0.00 0.00 0.00 0.00 0.00 0.00 0.00 0.00 0.00 0.00 0.00 0.00 0.00 0.00 0.00 0.00 0.01 0.01 0.02 0.03 0.02
0.00 0.00 0.00 0.00 0.00 0.00 0.00 0.00 0.00 0.00 0.00 0.00 0.00 0.00 0.00 0.00 0.00 0.00 0.00 0.00 0.00 0.00 0.00 0.00 0.00 0.00 0.00 0.00 0.00 0.00 0.00 0.00 0.00 0.00 0.00 0.00 0.00 0.01 0.01 0.02 0.02 0.02 0.03
0.00 0.00 0.00 0.00 0.00 0.00 0.00 0.00 0.00 0.00 0.00 0.00 0.00 0.00 0.00 0.00 0.00 0.00 0.00 0.00 0.00 0.00 0.00 0.00 0.00 0.00 0.00 0.00 0.00 0.00 0.00 0.00 0.00 0.00 0.00 0.00 0.00 0.00 0.00 0.00 0.00 0.00 0.01
0.00 0.00 0.00 0.00 0.00 0.00 0.00 0.00 0.00 0.00 0.00 0.00 0.00 0.00 0.00 0.00 0.00 0.00 0.00 0.00 0.00 0.00 0.00 0.00 0.00 0.00 0.00 0.00 0.00 0.00 0.00 0.00 0.00 0.00 0.00 0.00 0.00 0.00 0.00 0.00 0.00 0.00 0.00
0.00 0.00 0.00 0.00 0.00 0.00 0.00 0.00 0.00 0.00 0.00 0.00 0.00 0.00 0.00 0.00 0.00 0.00 0.00 0.00 0.00 0.00 0.00 0.00 0.00 0.00 0.00 0.00 0.00 0.00 0.00 0.00 0.00 0.00 0.00 0.00 0.00 0.00 0.00 0.00 0.00 0.00 0.00
0.00 0.00 0.00 0.00 0.00 0.00 0.00 0.00 0.00 0.00 0.00 0.00 0.00 0.00 0.00 0.00 0.00 0.00 0.00 0.00 0.00 0.00 0.00 0.00 0.00 0.00 0.00 0.00 0.00 0.00 0.00 0.00 0.00 0.00 0.00 0.00 0.00 0.00 0.00 0.00 0.00 0.00 0.00
0.00 0.00 0.00 0.00 0.00 0.00 0.00 0.00 0.00 0.00 0.00 0.00 0.00 0.00 0.00 0.00 0.00 0.00 0.00 0.00 0.00 0.00 0.00 0.00 0.00 0.00 0.00 0.00 0.00 0.00 0.00 0.00 0.00 0.00 0.00 0.00 0.00 0.00 0.00 0.00 0.00 0.00 0.00
0.00 0.00 0.00 0.00 0.00 0.00 0.00 0.00 0.00 0.00 0.00 0.00 0.00 0.00 0.00 0.00 0.00 0.00 0.00 0.00 0.00 0.00 0.00 0.00 0.00 0.00 0.00 0.00 0.00 0.00 0.00 0.00 0.00 0.00 0.00 0.00 0.00 0.00 0.00 0.00 0.00 0.00 0.00
0.00 0.00 0.00 0.00 0.00 0.00 0.00 0.00 0.00 0.00 0.00 0.00 0.00 0.00 0.00 0.00 0.00 0.00 0.00 0.00 0.00 0.00 0.00 0.00 0.00 0.00 0.00 0.00 0.00 0.00 0.00 0.00 0.00 0.00 0.00 0.00 0.00 0.00 0.00 0.00 0.00 0.00 0.00
0.00 0.00 0.00 0.00 0.00 0.00 0.00 0.00 0.00 0.00 0.00 0.00 0.00 0.00 0.00 0.00 0.00 0.00 0.00 0.00 0.00 0.00 0.00 0.00 0.00 0.00 0.00 0.00 0.00 0.00 0.00 0.00 0.00 0.00 0.00 0.00 0.00 0.00 0.00 0.00 0.00 0.00 0.00
0.00 0.00 0.00 0.00 0.00 0.00 0.00 0.00 0.00 0.00 0.00 0.00 0.00 0.00 0.00 0.00 0.00 0.00 0.00 0.00 0.00 0.00 0.00 0.00 0.00 0.00 0.00 0.00 0.00 0.00 0.00 0.00 0.00 0.00 0.00 0.00 0.00 0.00 0.00 0.00 0.00 0.00 0.00
0.00 0.00 0.00 0.00 0.00 0.00 0.00 0.00 0.00 0.00 0.00 0.00 0.00 0.00 0.00 0.00 0.00 0.00 0.00 0.00 0.00 0.00 0.00 0.00 0.00 0.00 0.00 0.00 0.00 0.00 0.00 0.00 0.00 0.00 0.00 0.00 0.00 0.00 0.00 0.00 0.00 0.00 0.00
0.00 0.00 0.00 0.00 0.00 0.00 0.00 0.00 0.00 0.00 0.00 0.00 0.00 0.00 0.00 0.00 0.00 0.00 0.00 0.00 0.00 0.00 0.00 0.00 0.00 0.00 0.00 0.00 0.00 0.00 0.00 0.00 0.00 0.00 0.00 0.00 0.00 0.00 0.00 0.00 0.00 0.00 0.00
0.00 0.00 0.00 0.00 0.00 0.00 0.00 0.00 0.00 0.00 0.00 0.00 0.00 0.00 0.00 0.00 0.00 0.00 0.00 0.00 0.00 0.00 0.00 0.00 0.00 0.00 0.00 0.00 0.00 0.00 0.00 0.00 0.00 0.00 0.00 0.00 0.00 0.00 0.00 0.00 0.00 0.00 0.00
0.00 0.00 0.00 0.00 0.00 0.00 0.00 0.00 0.00 0.00 0.00 0.00 0.00 0.00 0.00 0.00 0.00 0.00 0.00 0.00 0.00 0.00 0.00 0.00 0.00 0.00 0.00 0.00 0.00 0.00 0.00 0.00 0.00 0.00 0.00 0.00 0.00 0.00 0.00 0.00 0.00 0.00 0.00
0.00 0.00 0.00 0.00 0.00 0.00 0.00 0.00 0.00 0.00 0.00 0.00 0.00 0.00 0.00 0.00 0.00 0.00 0.00 0.00 0.00 0.00 0.00 0.00 0.00 0.00 0.00 0.00 0.00 0.00 0.00 0.00 0.00 0.00 0.00 0.00 0.00 0.00 0.00 0.00 0.00 0.00 0.00
0.00 0.00 0.00 0.00 0.00 0.00 0.00 0.00 0.00 0.00 0.00 0.00 0.00 0.00 0.00 0.00 0.00 0.00 0.00 0.00 0.00 0.00 0.00 0.00 0.00 0.00 0.00 0.00 0.00 0.00 0.00 0.00 0.00 0.00 0.00 0.00 0.00 0.00 0.00 0.00 0.00 0.00 0.00
0.00 0.00 0.00 0.00 0.00 0.00 0.00 0.00 0.00 0.00 0.00 0.00 0.00 0.00 0.00 0.00 0.00 0.00 0.00 0.00 0.00 0.00 0.00 0.00 0.00 0.00 0.00 0.00 0.00 0.00 0.00 0.00 0.00 0.00 0.00 0.00 0.00 0.00 0.00 0.00 0.00 0.00 0.00
MSLP
1018.13 1017.79 1017.47 1017.12 1016.81 1016.51 1016.41 1016.18 1015.96 1015.75 1015.54 1015.70 1015.89 1015.85 1016.04 1016.09 1016.08 1015.76 1015.37 1015.31 1015.30 1015.28 1015.12 1015.34 1015.80 1015.68 1015.80 1015.70 1015.67 1015.69 1015.63 1015.51 1015.25 1015.09 1014.49 1013.90 1013.48 1013.31 1013.10 1012.95 1012.95 1012.95 1012.83
1018.27 1017.87 1017.59 1017.30 1017.15 1017.00 1016.66 1016.41 1016.17 1015.93 1015.78 1015.71 1015.75 1015.85 1016.06 1016.07 1016.13 1015.94 1015.71 1015.47 1015.42 1015.52 1015.69 1015.81 1015.82 1015.83 1015.84 1015.71 1015.54 1015.57 1015.65 1015.48 1015.21 1015.23 1014.97 1014.20 1013.49 1013.08 1012.70 1012.66 1012.67 1012.66 1012.48
1018.69 1018.28 1017.83 1017.65 1017.33 1017.04 1016.78 1016.56 1016.29 1016.09 1015.93 1015.90 1015.97 1015.85 1015.76 1015.90 1015.89 1015.73 1015.64 1015.57 1015.57 1015.52 1015.51 1015.49 1015.48 1015.50 1015.49 1015.50 1015.40 1015.34 1015.38 1015.25 1014.88 1014.84 1014.94 1014.50 1014.17 1013.76 1012.79 1012.57 1012.51 1012.42 1012.40
1018.75 1018.50 1018.09 1017.68 1017.45 1017.04 1016.76 1016.54 1016.33 1016.18 1016.02 1016.01 1016.00 1016.07 1016.14 1016.05 1015.74 1015.58 1015.39 1015.29 1015.17 1015.15 1015.12 1015.13 1015.11 1015.14 1015.09 1015.13 1015.13 1014.93 1014.91 1014.81 1014.68 1014.54 1014.41 1014.28 1014.35 1014.10 1013.10 1012.67 1012.47 1012.33 1012.30
1018.95 1018.66 1018.28 1018.02 1017.60 1017.21 1016.83 1016.52 1016.33 1016.19 1016.11 1016.13 1016.20 1016.19 1016.05 1016.01 1015.72 1015.53 1015.32 1015.03 1014.77 1014.59 1014.58 1014.60 1014.59 1014.68 1014.71 1014.73 1014.74 1014.61 1014.50 1014.53 1014.50 1014.38 1014.17 1013.98 1013.89 1013.82 1013.67 1012.68 1012.13 1011.96 1011.88
1019.06 1018.93 1018.68 1018.38 1018.05 1017.58 1017.13 1016.75 1016.46 1016.31 1016.07 1015.91 1015.97 1016.15 1016.15 1016.00 1015.84 1015.59 1015.40 1015.02 1014.72 1014.44 1014.22 1014.06 1014.17 1014.23 1014.31 1014.34 1014.35 1014.27 1014.32 1014.30 1014.15 1014.01 1013.91 1013.73 1013.57 1013.26 1013.17 1012.72 1012.19 1011.77 1011.49
1019.29 1019.37 1019.19 1018.84 1018.55 1018.15 1017.72 1017.38 1017.05 1016.67 1016.24 1016.00 1015.85 1015.80 1015.90 1015.90 1015.85 1015.55 1015.36 1015.10 1014.72 1014.38 1014.08 1013.95 1013.82 1013.79 1013.80 1013.84 1013.88 1013.91 1014.03 1013.98 1013.83 1013.66 1013.51 1013.30 1013.19 1013.02 1012.85 1012.53 1011.97 1011.48 1011.06
1019.43 1019.50 1019.40 1019.29 1018.98 1018.71 1018.23 1017.81 1017.57 1017.38 1016.91 1016.40 1016.15 1015.91 1015.64 1015.50 1015.43 1015.30 1015.09 1014.78 1014.53 1014.16 1013.78 1013.64 1013.55 1013.42 1013.39 1013.42 1013.46 1013.53 1013.53 1013.52 1013.46 1013.38 1013.14 1013.04 1012.89 1012.69 1012.53 1012.37 1012.09 1011.08 1010.63
1019.69 1019.71 1019.56 1019.38 1019.29 1018.96 1018.62 1018.29 1017.89 1017.49 1017.20 1016.82 1016.44 1016.04 1015.76 1015.49 1015.23 1014.90 1014.65 1014.43 1014.12 1013.77 1013.41 1013.22 1013.10 1013.00 1012.97 1012.96 1012.99 1013.05 1013.07 1013.12 1013.24 1013.08 1012.75 1012.59 1012.46 1012.35 1012.02 1011.79 1011.62 1011.18 1010.15
1019.94 1019.99 1019.82 1019.66 1019.47 1019.14 1018.88 1018.54 1018.33 1018.09 1017.74 1017.31 1016.86 1016.35 1015.86 1015.37 1015.11 1014.73 1014.44 1014.12 1013.78 1013.43 1013.17 1012.89 1012.63 1012.39 1012.35 1012.44 1012.53 1012.51 1012.47 1012.59 1012.56 1012.43 1012.37 1012.22 1012.09 1011.98 1011.90 1011.61 1011.10 1010.69 1010.36
1020.06 1020.19 1020.07 1019.90 1019.67 1019.39 1019.12 1018.80 1018.44 1018.19 1017.90 1017.51 1017.10 1016.70 1016.20 1015.72 1015.25 1014.73 1014.29 1013.89 1013.47 1013.17 1012.87 1012.56 1012.29 1012.01 1011.76 1011.63 1011.78 1011.85 1011.92 1011.99 1011.96 1011.90 1012.01 1011.80 1011.93 1011.88 1011.81 1011.61 1011.29 1010.88 1010.53
1019.98 1020.19 1020.09 1019.95 1019.79 1019.51 1019.14 1018.87 1018.52 1018.21 1017.90 1017.48 1017.10 1016.66 1016.22 1015.76 1015.33 1014.93 1014.51 1014.02 1013.50 1013.02 1012.65 1012.22 1011.87 1011.60 1011.33 1011.08 1011.00 1011.01 1011.02 1011.25 1011.28 1011.26 1011.41 1011.45 1011.49 1011.45 1011.36 1011.23 1010.96 1010.71 1010.43
1020.20 1020.30 1020.32 1020.01 1019.71 1019.59 1019.28 1018.95 1018.60 1018.27 1017.87 1017.48 1017.04 1016.60 1016.14 1015.71 1015.34 1014.96 1014.38 1013.89 1013.32 1012.95 1012.48 1012.01 1011.60 1011.14 1010.75 1010.59 1010.43 1010.32 1010.29 1010.33 1010.42 1010.51 1010.55 1010.81 1010.95 1010.86 1010.85 1010.75 1010.55 1010.33 1010.00
1020.43 1020.49 1020.43 1020.13 1019.84 1019.53 1019.19 1018.88 1018.63 1018.31 1017.82 1017.45 1017.13 1016.74 1016.26 1015.68 1015.16 1014.69 1014.25 1013.68 1013.22 1012.80 1012.24 1011.76 1011.25 1010.80 1010.36 1009.96 1009.73 1009.67 1009.58 1009.53 1009.48 1009.54 1009.61 1009.69 1010.07 1010.13 1010.20 1010.17 1010.03 1009.84 1009.49
1020.34 1020.30 1020.19 1019.99 1019.77 1019.51 1019.04 1018.62 1018.33 1018.07 1017.71 1017.35 1016.82 1016.40 1015.99 1015.53 1015.05 1014.52 1014.11 1013.52 1013.01 1012.54 1012.04 1011.41 1010.86 1010.35 1009.91 1009.48 1009.09 1008.90 1008.79 1008.76 1008.71 1008.69 1008.74 1008.81 1008.85 1009.20 1009.44 1009.60 1009.44 1009.35 1008.92
1019.92 1019.80 1019.74 1019.54 1019.40 1019.15 1018.93 1018.56 1018.32 1017.99 1017.58 1017.15 1016.73 1016.18 1015.69 1015.25 1014.81 1014.36 1013.88 1013.27 1012.75 1012.26 1011.78 1011.16 1010.56 1010.00 1009.33 1008.78 1008.48 1008.30 1008.15 1007.93 1007.81 1007.73 1007.74 1007.85 1008.01 1008.14 1008.55 1008.76 1008.79 1008.77 1008.31
1019.49 1019.41 1019.35 1019.01 1018.91 1018.76 1018.37 1018.30 1018.02 1017.64 1017.27 1016.78 1016.31 1015.75 1015.37 1015.05 1014.62 1014.14 1013.52 1013.03 1012.58 1012.02 1011.48 1010.86 1010.23 1009.60 1008.90 1008.20 1007.80 1007.49 1007.31 1007.12 1006.93 1006.75 1006.78 1006.93 1007.04 1007.18 1007.56 1007.80 1007.88 1007.69 1007.47
1019.16 1019.11 1018.97 1018.80 1018.48 1018.31 1018.06 1017.62 1017.41 1017.19 1016.91 1016.46 1015.97 1015.35 1015.03 1014.64 1014.29 1013.78 1013.17 1012.62 1012.18 1011.73 1011.10 1010.42 1009.81 1009.19 1008.37 1007.71 1007.25 1006.85 1006.56 1006.31 1005.99 1005.85 1005.82 1005.98 1006.23 1006.48 1006.77 1007.06 1007.05 1006.89 1006.73
1018.95 1018.79 1018.40 1018.26 1018.15 1017.96 1017.54 1017.32 1017.08 1016.82 1016.45 1016.09 1015.58 1014.99 1014.62 1014.26 1013.87 1013.30 1012.72 1012.20 1011.74 1011.12 1010.55 1009.95 1009.30 1008.72 1007.86 1007.23 1006.68 1006.37 1006.00 1005.66 1005.25 1005.03 1005.01 1005.13 1005.35 1005.54 1005.91 1006.33 1006.39 1006.25 1006.03
1018.86 1018.56 1017.98 1017.87 1017.88 1017.41 1017.13 1016.99 1016.75 1016.44 1016.03 1015.41 1014.88 1014.42 1014.03 1013.76 1013.36 1012.87 1012.31 1011.69 1011.19 1010.45 1009.83 1009.19 1008.74 1008.12 1007.39 1006.68 1006.12 1005.76 1005.53 1004.99 1004.60 1004.36 1004.33 1004.27 1004.43 1004.79 1005.18 1005.46 1005.78 1005.74 1005.48
1018.31 1018.15 1017.76 1017.64 1017.33 1016.90 1016.62 1016.57 1016.23 1015.83 1015.08 1014.63 1014.17 1013.79 1013.38 1013.07 1012.70 1012.20 1011.66 1011.22 1010.50 1009.71 1009.03 1008.46 1007.83 1007.36 1006.87 1006.12 1005.55 1005.10 1004.88 1004.38 1003.94 1003.79 1003.71 1003.66 1003.63 1003.95 1004.35 1004.56 1004.99 1005.08 1005.05
1017.99 1017.63 1017.38 1017.15 1016.59 1016.27 1016.29 1016.11 1015.65 1014.90 1014.46 1014.11 1013.71 1013.26 1012.76 1012.28 1011.82 1011.53 1010.93 1010.44 1009.96 1009.28 1008.54 1007.84 1007.04 1006.52 1006.04 1005.54 1004.95 1004.47 1004.10 1003.72 1003.29 1002.95 1002.94 1002.89 1002.95 1003.15 1003.52 1003.85 1004.13 1004.36 1004.49
1017.45 1017.16 1017.09 1016.70 1016.10 1015.76 1015.70 1015.48 1014.61 1014.23 1013.84 1013.53 1013.04 1012.58 1012.13 1011.63 1011.22 1010.85 1010.29 1009.78 1009.24 1008.65 1007.79 1007.33 1006.59 1005.68 1005.16 1004.67 1004.29 1003.85 1003.40 1002.99 1002.56 1002.09 1002.14 1002.19 1002.27 1002.55 1002.93 1003.23 1003.59 1003.74 1004.21
1016.87 1016.70 1016.52 1016.14 1015.60 1015.04 1014.63 1014.31 1013.83 1013.46 1013.19 1012.81 1012.26 1011.81 1011.48 1010.89 1010.41 1010.00 1009.57 1009.07 1008.51 1007.87 1007.29 1006.67 1006.04 1005.20 1004.44 1003.96 1003.51 1003.16 1002.85 1002.40 1001.90 1001.22 1001.40 1001.52 1001.80 1002.16 1002.69 1003.11 1003.32 1003.71 1003.93
1016.31 1016.07 1015.79 1015.43 1014.86 1014.29 1013.70 1013.25 1012.98 1012.80 1012.55 1012.16 1011.57 1011.08 1010.65 1010.12 1009.54 1009.04 1008.61 1008.10 1007.46 1007.11 1006.27 1005.78 1005.46 1004.72 1003.63 1003.30 1002.89 1002.56 1002.08 1001.62 1001.20 1001.06 1001.11 1001.14 1001.57 1002.16 1002.69 1003.08 1003.36 1003.62 1003.78
1015.51 1015.29 1014.88 1014.61 1013.92 1013.41 1012.86 1012.38 1011.99 1011.85 1011.71 1011.40 1010.86 1010.29 1009.83 1009.26 1008.80 1008.30 1007.37 1006.89 1006.31 1005.75 1005.34 1004.85 1004.55 1003.59 1003.07 1002.40 1002.01 1001.56 1001.08 1000.46 1000.10 1000.09 1000.46 1000.69 1001.05 1001.71 1002.21 1002.71 1003.10 1003.35 1003.53
Thickness
5621 5619 5615 5612 5610 5607 5602 5598 5594 5589 5582 5572 5562 5552 5543 5541 5543 5546 5553 5558 5561 5567 5575 5578 5581 5587 5592 5597 5602 5607 5612 5617 5623 5628 5636 5643 5648 5652 5657 5660 5662 5665 5667
5613 5612 5609 5604 5599 5595 5593 5591 5589 5586 5580 5572 5563 5555 5547 5544 5543 5547 5550 5554 5559 5562 5565 5569 5575 5581 5585 5590 5596 5600 5604 5609 5614 5618 5622 5631 5641 5647 5652 5655 5657 5659 5662
5603 5601 5599 5595 5592 5590 5588 5586 5584 5580 5576 5571 5564 5559 5554 5549 5548 5549 5551 5553 5554 5556 5561 5567 5572 5575 5580 5585 5589 5593 5597 5602 5609 5612 5615 5621 5626 5632 5642 5647 5650 5653 5655
5592 5591 5589 5588 5586 5586 5583 5581 5579 5576 5572 5568 5564 5559 5553 5550 5550 5549 5550 5552 5554 5556 5558 5562 5567 5572 5576 5580 5583 5589 5592 5597 5602 5605 5609 5614 5618 5621 5631 5637 5641 5644 5647
5582 5581 5580 5580 5578 5577 5576 5575 5573 5572 5568 5563 5559 5556 5554 5550 5549 5548 5548 5549 5553 5555 5557 5559 5562 5566 5570 5574 5578 5583 5587 5590 5593 5597 5601 5605 5609 5613 5617 5629 5634 5636 5638
5574 5573 5571 5570 5568 5567 5567 5568 5568 5567 5564 5562 5558 5553 5550 5548 5547 5547 5547 5548 5549 5552 5554 5556 5558 5561 5564 5567 5570 5575 5578 5581 5585 5589 5592 5596 5600 5606 5609 5616 5625 5630 5633
5566 5563 5560 5559 5559 5558 5558 5559 5558 5558 5558 5556 5555 5553 5549 5546 5543 5544 5544 5545 5547 5549 5551 5553 5555 5556 5559 5561 5564 5566 5568 5572 5576 5580 5584 5588 5591 5595 5598 5604 5612 5619 5626
5560 5557 5554 5551 5550 5549 5549 5549 5547 5545 5546 5548 5547 5546 5546 5545 5543 5541 5541 5542 5543 5546 5549 5551 5552 5552 5554 5555 5557 5558 5560 5563 5566 5569 5574 5578 5581 5584 5588 5591 5596 5608 5615
5554 5550 5548 5545 5543 5541 5540 5538 5539 5539 5538 5537 5536 5537 5538 5539 5538 5539 5539 5539 5540 5542 5545 5546 5548 5548 5549 5549 5550 5551 5552 5554 5554 5558 5563 5568 5570 5574 5578 5582 5586 5592 5605
5545 5537 5535 5533 5532 5530 5528 5528 5526 5524 5524 5525 5526 5528 5529 5532 5531 5532 5533 5534 5536 5538 5539 5541 5543 5545 5545 5544 5544 5545 5546 5547 5548 5551 5554 5557 5560 5563 5565 5570 5578 5584 5589
5529 5523 5520 5518 5518 5515 5514 5514 5515 5514 5512 5513 5513 5513 5516 5519 5522 5524 5526 5527 5529 5530 5531 5534 5537 5539 5540 5541 5541 5541 5540 5541 5542 5544 5544 5549 5549 5551 5553 5556 5561 5566 5572
5512 5509 5506 5503 5502 5502 5502 5502 5502 5502 5502 5502 5501 5502 5502 5503 5506 5510 5513 5516 5519 5522 5523 5526 5528 5530 5534 5536 5537 5538 5538 5537 5537 5537 5538 5539 5540 5542 5544 5547 5552 5556 5560
5498 5492 5488 5488 5488 5486 5485 5485 5486 5486 5487 5487 5488 5489 5491 5491 5492 5494 5497 5502 5507 5510 5513 5516 5519 5522 5525 5526 5529 5531 5532 5533 5533 5533 5534 5533 5533 5535 5536 5538 5543 5547 5553
5477 5471 5469 5470 5469 5470 5469 5469 5467 5468 5470 5470 5471 5471 5474 5477 5480 5482 5484 5487 5490 5494 5500 5504 5508 5512 5515 5518 5520 5521 5524 5526 5528 5529 5530 5530 5528 5529 5528 5530 5534 5539 5544
5462 5458 5455 5453 5451 5452 5454 5455 5455 5455 5454 5454 5457 5458 5459 5460 5461 5465 5468 5472 5475 5479 5482 5489 5494 5498 5502 5507 5510 5511 5515 5517 5519 5521 5522 5522 5524 5522 5522 5522 5526 5529 5535
5451 5446 5443 5441 5439 5437 5437 5438 5436 5437 5439 5440 5441 5442 5443 5444 5444 5448 5451 5454 5458 5462 5465 5471 5477 5483 5489 5494 5497 5499 5502 5506 5511 5515 5515 5515 5516 5516 5516 5516 5518 5520 5526
5437 5436 5433 5432 5429 5425 5424 5421 5420 5421 5421 5421 5423 5425 5425 5425 5427 5428 5432 5435 5438 5443 5447 5453 5459 5466 5474 5480 5484 5487 5489 5494 5500 5505 5507 5507 5509 5510 5509 5509 5512 5516 5519
5422 5418 5414 5413 5411 5410 5408 5408 5407 5405 5404 5405 5407 5409 5408 5408 5409 5411 5414 5416 5419 5423 5430 5436 5440 5446 5456 5462 5468 5473 5477 5482 5488 5492 5496 5498 5498 5498 5499 5500 5503 5507 5511
5402 5401 5399 5397 5393 5390 5389 5389 5389 5387 5387 5388 5390 5392 5392 5392 5393 5395 5397 5400 5403 5407 5411 5417 5423 5427 5437 5442 5449 5452 5459 5467 5476 5480 5482 5485 5487 5489 5488 5489 5492 5496 5500
5382 5379 5380 5377 5373 5374 5371 5370 5370 5370 5369 5373 5375 5375 5375 5375 5376 5378 5380 5382 5385 5392 5397 5402 5405 5411 5419 5425 5430 5434 5440 5451 5459 5464 5468 5472 5475 5475 5476 5477 5479 5484 5488
5365 5361 5360 5356 5354 5355 5352 5351 5352 5351 5356 5358 5359 5358 5358 5357 5358 5360 5362 5365 5369 5376 5381 5386 5392 5396 5400 5408 5414 5419 5422 5432 5441 5447 5451 5455 5459 5462 5463 5465 5466 5469 5474
5344 5345 5341 5340 5341 5339 5331 5333 5332 5335 5337 5337 5338 5340 5341 5342 5343 5342 5345 5347 5349 5356 5362 5368 5377 5382 5386 5391 5398 5404 5410 5415 5424 5433 5436 5438 5443 5449 5450 5452 5454 5457 5461
5329 5326 5321 5322 5325 5322 5315 5314 5318 5315 5316 5317 5320 5321 5323 5323 5323 5324 5328 5330 5332 5337 5346 5350 5358 5368 5373 5377 5381 5388 5395 5402 5410 5419 5420 5424 5430 5432 5434 5437 5439 5443 5444
5310 5307 5304 5303 5306 5308 5306 5301 5302 5301 5299 5300 5304 5305 5305 5309 5312 5312 5314 5316 5319 5323 5329 5334 5340 5351 5360 5364 5368 5372 5379 5388 5396 5407 5407 5411 5414 5418 5417 5419 5422 5424 5428
5299 5294 5293 5293 5295 5296 5299 5299 5296 5291 5288 5288 5291 5293 5294 5296 5299 5302 5304 5306 5311 5312 5318 5323 5326 5335 5348 5352 5356 5360 5367 5375 5383 5388 5390 5396 5398 5398 5397 5399 5403 5407 5411
5292 5289 5288 5284 5289 5291 5293 5294 5291 5285 5279 5276 5279 5281 5282 5285 5286 5287 5296 5301 5304 5309 5311 5316 5319 5330 5335 5344 5349 5353 5359 5369 5375 5377 5380 5385 5386 5386 5386 5386 5390 5393 5399